SRMSAT
1 37841U 11058D 23075.28088031 .00000620 00000-0 19557-3 0 9993
2 37841 19.9727 51.7222 0012086 91.0850 297.2567 14.10853936589672
HRBE
1 37855U 11061F 23075.30516973 .00048092 00000-0 17010-2 0 9992
2 37855 101.7045 345.3909 0130577 324.0138 35.2342 15.21222194622889
RS-40
1 38735U 12041C 23075.80192549 .00000007 00000-0 -23293-4 0 9990
2 38735 82.4717 95.7061 0018095 135.2912 224.9628 12.42591818482346
ZACUBE-1
1 39417U 13066B 23075.42223540 .00006692 00000-0 78673-3 0 9996
2 39417 97.6745 40.4532 0054164 231.3131 128.3233 14.84127206503438
Delfi-N3xt
1 39428U 13066N 23075.59961754 .00007360 00000-0 10797-2 0 9997
2 39428 97.8304 3.8089 0114314 126.0025 235.1845 14.71412424498691
GOMX-1
1 39430U 13066Q 23075.76722853 .00004942 00000-0 86964-3 0 9997
2 39430 97.7890 332.2703 0145149 265.6234 92.8352 14.61339091496042
LO-74
1 39440U 13066AA 23075.55550076 .00007508 00000-0 98301-3 0 9990
2 39440 97.7623 27.4329 0075558 329.8312 29.8558 14.78657248500465
AO-73
1 39444U 13066AE 23075.41788865 .00008062 00000-0 91372-3 0 9995
2 39444 97.6611 42.9264 0052819 217.0369 142.7196 14.85610567501869
SPROUT
1 39770U 14029E 23075.85221321 .00035286 00000-0 29938-2 0 9990
2 39770 97.9611 200.8090 0008316 259.5727 100.4505 14.97799263478310
DTUSAT-2
1 40030U 14033W 23075.36756281 .00009916 00000-0 98165-3 0 9990
2 40030 97.9594 14.8307 0009392 232.7349 127.3013 14.92026931474153
EO-80
1 40032U 14033Y 23075.34345780 .00009053 00000-0 89684-3 0 9996
2 40032 97.9597 14.8237 0009289 234.6355 125.3996 14.92024420474129
HODOYOSHI-1
1 40299U 14070B 23075.86802041 .00017085 00000-0 56596-3 0 9997
2 40299 97.2055 141.0270 0009934 242.9798 205.8809 15.31311390464671
FIREBIRD FU3
1 40377U 15003B 23075.77008593 .00084762 00000-0 13835-2 0 9995
2 40377 99.0758 9.0847 0066906 169.9958 190.2638 15.49719751450235
FIREBIRD FU4
1 40378U 15003C 23075.77708887 .00084191 00000-0 13693-2 0 9997
2 40378 99.0765 9.3873 0067077 169.2689 191.0007 15.49806206450242
GRIFEX
1 40379U 15003D 23075.29600772 .00048836 00000-0 12996-2 0 9990
2 40379 99.0787 350.2766 0092367 229.0395 130.2824 15.33757017449108
XW-2A
1 40903U 15049E 23075.82625567 .00259080 00000-0 10997-2 0 9995
2 40903 97.1293 142.6757 0006877 184.6343 287.7558 15.84616960421799
XW-2C
1 40906U 15049H 23075.86566616 .00019657 00000-0 81565-3 0 9995
2 40906 97.4976 82.8477 0014395 121.8368 323.3867 15.23800032414320
XW-2D
1 40907U 15049J 23075.86276935 .00023251 00000-0 92406-3 0 9999
2 40907 97.4964 83.1611 0013703 115.9248 5.0214 15.25223209414399
LILACSAT-2
1 40908U 15049K 23076.01894696 .00009889 00000-0 48269-3 0 9997
2 40908 97.5264 79.4145 0015614 144.9265 281.6946 15.18378508413802
XW-2E
1 40909U 15049L 23075.99383230 .00040517 00000-0 12853-2 0 9993
2 40909 97.4609 88.7675 0012455 92.3968 323.0920 15.32498774414990
XW-2F
1 40910U 15049M 23075.83600900 .00040267 00000-0 13011-2 0 9993
2 40910 97.4702 87.8210 0013518 94.5169 29.0442 15.31896095414729
XW-2B
1 40911U 15049N 23075.84644874 .00022892 00000-0 91481-3 0 9995
2 40911 97.4946 83.6351 0013715 117.4306 3.7458 15.25042308414276
DCBB
1 40912U 15049P 23076.03203668 .00048724 00000-0 13580-2 0 9995
2 40912 97.4273 92.4422 0012344 63.6186 320.9853 15.36545002415424
IO-86
1 40931U 15052B 23075.05277511 .00001938 00000-0 17876-3 0 9998
2 40931 5.9970 31.3109 0012989 51.3345 308.7956 14.77099262403569
ATHENOXAT-1
1 41168U 15077C 23075.61672737 .00105352 00000-0 26380-2 0 9993
2 41168 14.9915 216.8258 0008036 127.8129 325.5378 15.38196670401958
ChubuSat-2
1 41338U 16012B 23075.40311391 .00007646 00000-0 54597-3 0 9994
2 41338 31.0030 90.6498 0012437 332.0131 27.9836 15.03123564388402
ChubuSat-3
1 41339U 16012C 23075.75344587 .00006962 00000-0 49734-3 0 9993
2 41339 31.0099 85.3953 0012769 341.2168 183.3943 15.03064043388452
Horyu-4
1 41340U 16012D 23075.07718229 .00012811 00000-0 84282-3 0 9995
2 41340 31.0049 61.5665 0011203 27.1029 333.0192 15.06325831388664
e-st@r-II
1 41459U 16025D 23075.96837896 .00040120 00000-0 13361-2 0 9993
2 41459 98.1925 268.2886 0119133 59.1661 302.1249 15.24355552378821
AAUSAT4
1 41460U 16025E 23075.81537672 .00093978 00000-0 20909-2 0 9993
2 41460 98.1732 277.9403 0085229 21.2829 349.6851 15.39478073379483
LO-87
1 41557U 16033B 23076.02171365 .00066764 00000-0 12543-2 0 9994
2 41557 97.3831 181.0661 0008586 124.5271 320.8801 15.48328706379316
NuSat2
1 41558U 16033C 23075.86535096 .00073371 00000-0 12798-2 0 9995
2 41558 97.4100 188.2492 0007578 113.3561 39.8011 15.50431953379600
Lapan A3
1 41603U 16040E 23075.86111238 .00004668 00000-0 20795-3 0 9992
2 41603 97.1772 105.6734 0011077 284.0498 249.3193 15.21851220373445
Pratham
1 41783U 16059A 23075.33610410 .00001596 00000-0 31252-3 0 9996
2 41783 97.8809 110.5394 0033891 36.6173 323.7337 14.63758819345393
TY-1
1 41844U 16066D 23076.00611524 .00065001 00000-0 14405-2 0 9995
2 41844 97.3789 93.3816 0011279 44.6297 39.1617 15.43470012353418
CAS-2T
1 41847U 16066G 23075.51976109 .00003270 00000-0 49134-3 0 9994
2 41847 98.5137 144.4970 0362034 115.3502 248.5638 14.39374507333472
EO-88
1 42017U 17008BX 23075.92117197 .00088474 00000-0 13528-2 0 9996
2 42017 97.2264 144.9690 0001822 333.4896 26.6265 15.54087234339032
CAS-4B
1 42759U 17034B 23075.87526576 .00013161 00000-0 69257-3 0 9999
2 42759 43.0170 268.1725 0011333 229.5388 266.2930 15.15488591317627
CAS-4A
1 42761U 17034D 23075.89529975 .00014134 00000-0 74103-3 0 9997
2 42761 43.0172 266.6277 0011534 233.4008 269.3546 15.15569586317635
NIUSat
1 42766U 17036B 23075.09103765 .00034650 00000-0 10435-2 0 9993
2 42766 97.1712 108.7733 0013184 82.4537 277.8204 15.34177549318311
Aalto 1
1 42775U 17036L 23075.82091464 .00022285 00000-0 72501-3 0 9990
2 42775 97.1661 108.7040 0012720 81.4290 278.8393 15.31806469318367
URSA MAIOR
1 42776U 17036M 23075.52483694 .00025629 00000-0 79976-3 0 9996
2 42776 97.1671 109.5204 0012122 80.6299 279.6314 15.33121559318371
Max Valier Sat
1 42778U 17036P 23075.83020370 .00023624 00000-0 70955-3 0 9991
2 42778 97.1714 113.0695 0010728 81.6741 278.5719 15.34367534318540
Pegasus
1 42784U 17036V 23075.83486083 .00041043 00000-0 10390-2 0 9996
2 42784 97.1632 114.8102 0009440 77.5870 282.6432 15.39588231318737
NUDATSat
1 42787U 17036Y 23075.86435693 .00161527 00000-0 20966-2 0 9993
2 42787 97.1604 122.4278 0005172 71.8089 288.3757 15.58268665319051
SUCHAI 1
1 42788U 17036Z 23075.07150782 .00068991 00000-0 14658-2 0 9992
2 42788 97.1616 116.8270 0007786 75.6960 284.5153 15.44738613318863
SKCUBE
1 42789U 17036AA 23075.10410688 .00054599 00000-0 12691-2 0 9995
2 42789 97.1624 115.8015 0008440 76.8193 283.3996 15.42118648318723
VZLUSAT 1
1 42790U 17036AB 23075.09682062 .00147667 00000-0 20060-2 0 9990
2 42790 97.1590 121.4926 0004642 67.8199 292.3548 15.57094936319078
VENTA 1
1 42791U 17036AC 23075.41057176 .00054749 00000-0 13779-2 0 9996
2 42791 97.1638 115.5387 0008705 77.0045 283.2173 15.39705426318721
Robusta 1B
1 42792U 17036AD 23075.09538683 .00064896 00000-0 14159-2 0 9995
2 42792 97.1609 116.7053 0007682 76.7196 283.4909 15.43970937318791
D-SAT
1 42794U 17036AF 23075.78458892 .00006332 00000-0 51406-3 0 9994
2 42794 97.4621 72.2243 0116906 252.0899 106.7547 14.94707944312156
